DELTA 1 DEB, 29184

Orbit data source: Space-Track

DELTA 1 DEB, 29184 is space debris in LEO originally from a launch on Thu, 11 Jan 1968 UTC launched from the Air Force Western Test Range (AFWTR). Debris objects in space refer to the collection of defunct objects orbiting the Earth. Examples of debris include non-operational satellites, rocket bodies, and fragments generated from explosions, collisions, or faulty payload assembly.

Loading next visibility...
Identifier
29184, 1968-002H
Orbit
LEO
Country
Flag of USUS
Related business
Manufacturer
Unknown
Mission
Spacecraft
Bus & Motor
Unknown
Mass
Unknown
Launch date (UTC)
1968-01-11 (58 years ago)
Launch vehicle
Unknown
Launch site
Air Force Western Test Range (AFWTR)
Object type
Payload
Rocket body
Debris
Shape & HBR
Unknown
Radar Cross Section
Small (<0.1 m²)

Expand to show TLE details & history
Last TLE update: 4 weeks ago

TLE from 4 weeks ago
0 DELTA 1 DEB
1 29184U 68002H   25218.54668540  .00001172  00000-0  27565-2 0  9994
2 29184 105.8245 113.6081 0264497  44.2909 317.9020 13.16179762977582
Epoch: 2025-08-06T13:07Z
TLE epoch observation values (Epoch: 2025-08-06T13:07:13.618Z)
Latitude
-0.00004°
Longitude
-38.52252°
Altitude
1,055.538 km
Speed
7.395 km/s
True Right ascension
07h 34m 25s
True Declination
0° 00' 00"
Sunlit
Object was in daylight at epoch
Visualization orbit readout
Latitude
Unknown
Longitude
Unknown
Altitude
Unknown
Speed
Unknown
Apparent Right ascension
Unknown
Apparent Declination
Unknown
Sunlit
N/A
Visualization observer readout
Local Sidereal Time
17:56:47
Azimuth
Unknown
Elevation
Unknown
Doppler factor
Unknown
Orbital elements
Apogee altitude
1,397.455 km
Perigee altitude
996.73 km
Semi-major axis
7,575.229 km
Eccentricity
0.02645
Inclination
105.8245°
RAAN
113.6081°
Arg. of periapsis
44.2909°
True anomaly
315.81949°
Mean anomaly
317.902°
Eccentric anomaly
316.86587°
Mean motion
3.29192 °/min
Orbital period
109.36 mins
BSTAR
0.0027565
Loading maneuver chart data...
Computing Atmospheric mass density...
Loading historical data...
Loading historical data...
Loading historical data...
Loading historical data...
Loading historical data...
Loading historical data...
Loading historical data...

Documentation

Showing up to 5 results
|